Regional Weather Roundup
Issued by NWS

Home | Current Version | Previous Version | Graphics & Text | Print | Product List | Glossary On
Versions: 1 2 3 4 5 6 7 8 9 10 11 12 13 14 15 16 17 18 19 20 21 22 23 24 25 26 27 28 29 30 31 32 33 34 35 36 37 38 39 40 41 42 43 44 45 46 47 48 49 50
862
ASUS43 KMPX 080601
RWRMN
WEATHER ROUNDUP FOR MINNESOTA
NATIONAL WEATHER SERVICE TWIN CITIES/CHANHASSEN MN
1200 AM CST MON FEB 08 2016


NOTE: "FAIR" INDICATES FEW OR NO CLOUDS BELOW 12,000 FEET WITH NO
SIGNIFICANT WEATHER AND/OR OBSTRUCTIONS TO VISIBILITY. N/A MEANS
CURRENT SKY AND/OR WEATHER CONDITIONS ARE NOT AVAILABLE.

MNZ060>063-068>070-080700-
   Twin Cities Metro

CITY           SKY/WX    TMP DP  RH WIND       PRES   REMARKS
TWIN CITIES    FLURRIES  16   8  71 NW22      29.78R WCI  -2
6HR MIN TEMP:  16; 6HR MAX TEMP:  33; 6HR PCP:  0.02;

ST PAUL        CLOUDY    17   8  67 NW18      29.78S WCI   1
CRYSTAL        FLURRIES  17   9  70 NW18      29.78R WCI   1
BLAINE         CLOUDY    18  10  73 NW16G23   29.77R WCI   3
LAKEVILLE      FLURRIES  16   9  73 NW18G24   29.76S WCI  -1
EDEN PRAIRIE   CLOUDY    17   7  64 NW17G24   29.77R WCI   1
6HR MIN TEMP:  17; 6HR MAX TEMP:  34; 6HR PCP: TRACE;

SOUTH ST PAUL  CLOUDY    18   9  67 NW17G28   29.77S WCI   3
LAKE ELMO      FLURRIES  19  12  73 NW15      29.76R WCI   5
$$
MNZ001>005-007-008-013>017-022>024-027-028-080700-
   Northwest Minnesota

CITY           SKY/WX    TMP DP  RH WIND       PRES   REMARKS
BEMIDJI        FLURRIES   5   0  80 NW14G21   29.87R WCI -12
HALLOCK        LGT SNOW  10   7  85 N23G29    30.04S WCI -10
ROSEAU         LGT SNOW   7   1  78 NW20      29.96S WCI -13
WARROAD        LGT SNOW   3   0  85 NW17G25   29.94R WCI -17
CROOKSTON      LGT SNOW  10   9  92 N28G35    30.04R VSB 3/4 WCI -11
FOSSTON        LGT SNOW   5   1  85 NW23G29   29.95R VSB 1   WCI -17
DETROIT LAKES  LGT SNOW  10   7  85 NW28G36   29.93R WCI -11
MOORHEAD       CLOUDY    12  10  92 N32       30.02S WCI -10
PARK RAPIDS    FLURRIES   9   1  70 NW17      29.84R WCI  -9
MAHNOMEN       LGT SNOW   8   4  85 NW22      29.94S WCI -13
$$
MNZ006-009>011-018-025>026-080700-
   North Central Minnesota

CITY           SKY/WX    TMP DP  RH WIND       PRES   REMARKS
BAUDETTE       MOCLDY     4  -2  76 NW20G30   29.88R WCI -17
FLAG ISLAND    CLOUDY     3   0  85 NW23G29   29.92R HAZE    WCI -19
INTL FALLS     LGT SNOW   8   3  80 NW15G22   29.80R WCI  -9
6HR MIN TEMP:   8; 6HR MAX TEMP:  22; 6HR PCP:  0.01;

WASKISH        CLOUDY     7   1  78 NW10      29.88R WCI  -8
LONGVILLE      CLOUDY     9   3  78 NW12G20   29.82R WCI  -6
GRAND RAPIDS   CLOUDY     9   1  72 NW20G28   29.76R WCI -11
CRANE LAKE     CLOUDY    16  10  79 N9        29.76R WCI   4
ORR            LGT SNOW  10   5  79 NW14G20   29.73R WCI  -5
COOK           LGT SNOW  12   9  85 W9        29.73R WCI   0
WALKER         FLURRIES   7   1  78 NW16G24   29.84R WCI -12
$$
MNZ012-019>021-037-080700-
   Northeast Minnesota

CITY           SKY/WX    TMP DP  RH WIND       PRES   REMARKS
DULUTH         LGT SNOW  16  12  84 NW15      29.64R BLWGSNOWWCI   1
6HR MIN TEMP:  16; 6HR MAX TEMP:  28; 6HR PCP:  0.02;

ELY            CLOUDY    16  14  93 NW6G16    29.68R WCI   7
HIBBING        LGT SNOW   9   5  84 NW24G31   29.72R FOG     WCI -12
EVELETH        LGT SNOW  14  10  85 NW14G21   29.71R WCI  -1
DULUTH HARBOR  CLOUDY    21  18  86 NW13G24   29.70R WCI   9
TWO HARBORS    CLOUDY    25  19  80 NW10G21   29.61R WCI  15
SILVER BAY     LGT SNOW  28  25  86 NW7       29.60R WCI  21
GRAND MARAIS     N/A     20  13  74 N14       29.63R WCI   7
G MARAIS ARPRT LGT SNOW  10   7  85 N17G23    29.57R WCI  -7
$$
MNZ029>031-032-039>041-046>048-054>057-064-080700-
   West Central Minnesota

CITY           SKY/WX    TMP DP  RH WIND       PRES   REMARKS
FERGUS FALLS   CLOUDY    10   7  85 N30G39    29.98R WCI -12
WHEATON        LGT SNOW  16  12  86 NW25G32   30.02R WCI  -3
MORRIS         SNOW      12   9  85 NW35G48   29.92R VSB 1/2 WCI -10
ALEXANDRIA     FLURRIES  10   3  73 N21G32    29.87R WCI  -9
ELBOW LAKE     LGT SNOW  10   7  85 NW26G33   29.94R WCI -11
WADENA         LGT SNOW   9   3  78 NW18G28   29.86R WCI -10
GLENWOOD       CLOUDY    10   5  79 NW28      29.87R WCI -11
APPLETON       LGT SNOW  16  12  86 NW33G43   29.95S VSB 3/4 WCI  -5
BENSON         LGT SNOW  12   9  85 N29G36    29.91R WCI  -9
ORTONVILLE     LGT SNOW  16  10  79 N28G35    29.98R WCI  -4
MADISON        MOCLDY    19  12  73 N33G39    29.97R WCI   0
WILLMAR        FLURRIES  16   9  73 NW35G45   29.88R WCI  -6
$$
MNZ033>034-036-042>043-049>051-058-059-080700-
   Central Minnesota

CITY           SKY/WX    TMP DP  RH WIND       PRES   REMARKS
ST CLOUD       CLOUDY    13   5  70 NW23G30   29.80R WCI  -6
6HR MIN TEMP:  13; 6HR MAX TEMP:  24; 6HR PCP: TRACE;

SAUK CENTRE    LGT SNOW  10   6  84 NW24G33   29.85R WCI -10
PAYNESVILLE    LGT SNOW  12   8  83 NW17      29.86R WCI  -5
AITKIN         FLURRIES  12   3  67 NW9G20    29.77R WCI   0
PINE RIVER     CLOUDY     9   3  78 NW16G23   29.85R WCI  -9
BRAINERD       LGT SNOW  11   4  73 N21       29.81R WCI  -8
STAPLES        LGT SNOW   9   3  78 NW14      29.84R WCI  -8
LONG PRAIRIE   LGT SNOW  10   5  79 NW21G30   29.84R WCI  -9
LITTLE FALLS   CLOUDY    14   5  67 NW9G21    29.83R WCI   2
LITCHFIELD     LGT SNOW  14  10  85 NW21G33   29.84R WCI  -4
BUFFALO        CLOUDY    15   7  73 NW18G24   29.82R WCI  -2
MAPLE LAKE     FLURRIES  15   9  76 NW15G24   29.82R WCI   0
$$
MNZ037-044-045-052-053-080700-
   East Central Minnesota

CITY           SKY/WX    TMP DP  RH WIND       PRES   REMARKS
PRINCETON      FLURRIES  16   9  73 NW14G21   29.78R WCI   1
MORA           FLURRIES  14   9  79 NW20      29.77R WCI  -3
CAMBRIDGE      FLURRIES  18   9  68 NW17      29.75S WCI   2
RUSH CITY      CLOUDY    16   9  73 NW12      29.76R WCI   3
MOOSE LAKE     FLURRIES  16   9  73 NW10G23   29.71R WCI   3
HINCKLEY       FLURRIES  18  10  73 NW15G25   29.74R WCI   3
CLOQUET        FLURRIES  16   9  73 NW14G21   29.68R WCI   1
MCGREGOR       CLOUDY    12   9  85 NW15      29.76R WCI  -4
$$
MNZ071>073-080-081-089-090-097-098-080700-
   Southwest Minnesota

CITY           SKY/WX    TMP DP  RH WIND       PRES   REMARKS
MONTEVIDEO     LGT SNOW  14  12  92 N36G41    29.93S WCI  -8
GRANITE FALLS  LGT SNOW  18  13  84 NW26G40   29.94R WCI  -1
CANBY          CLOUDY    22  16  79 NW25G38   29.97R WCI   5
MARSHALL       LGT SNOW  17  13  84 N33G39    29.90F VSB 3/4 WCI  -4
REDWOOD FALLS  LGT SNOW  16  10  77 NW28G47   29.88R WCI  -4
OLIVIA         LGT SNOW  18  12  79 NW26G41   29.87S WCI  -1
PIPESTONE      LGT SNOW  21  12  68 N21G35    29.92S WCI   6
WINDOM         LGT SNOW  18  16  93 NW31      29.85S VSB 3/4 WCI  -2
WORTHINGTON    CLOUDY   N/A N/A N/A NW30G39   29.89S
JACKSON        CLOUDY    19  16  86 NW29G35   29.85F WCI   1
TRACY          LGT SNOW  18  15  88 NW25G37   29.91R VSB 3/4 WCI   0
SLAYTON        LGT SNOW  17  15  92 NW30G38   29.89R WCI  -3
$$
MNZ065>067-074>077-082>085-091>093-080700-
   South Central Minnesota

CITY           SKY/WX    TMP DP  RH WIND       PRES   REMARKS
MANKATO        CLOUDY   N/A N/A N/A NW26G38   29.80S
NEW ULM        LGT SNOW  16  10  79 NW30G38   29.82S WCI  -4
ST JAMES       SNOW      18  16  93 NW30G40   29.86R VSB 1/2 WCI  -2
FAIRMONT       CLOUDY    18  10  73 NW28      29.83R WCI  -1
GLENCOE        LGT SNOW  15  12  85 NW20G28   29.82R WCI  -2
FARIBAULT      FLURRIES  16  10  79 NW12G24   29.78R WCI   3
OWATONNA       LGT SNOW  16  10  79 NW24      29.76F WCI  -3
WASECA         LGT SNOW  18  12  79 NW24G31   29.80R WCI   0
ALBERT LEA     LGT SNOW  18  14  86 NW17G26   29.76S WCI   2
$$
MNZ078>079-086>088-094>096-080700-
   Southeast Minnesota

CITY           SKY/WX    TMP DP  RH WIND       PRES   REMARKS
ROCHESTER      LGT SNOW  17  13  84 NW22      29.70S FOG     WCI   0
6HR MIN TEMP:  17; 6HR MAX TEMP:  33; 6HR PCP: TRACE;

RED WING       FLURRIES  19  10  68 NW13G18   29.74R WCI   7
STANTON        CLOUDY    18  10  71 NW17G24   29.75S WCI   3
DODGE CENTER   FLURRIES  16  12  86 NW10      29.72S WCI   3
WINONA         LGT SNOW  23  19  86 NW13G22   29.72R WCI  11
AUSTIN         LGT SNOW  18  14  86 NW23G31   29.74R WCI   0
PRESTON        LGT SNOW  19  15  86 NW21G26   29.69S WCI   2
$$
ABBREVIATIONS USED IN REMARKS
   TC - TEMPERATURES IN CELSIUS
  WCI - WIND CHILL INDEX
   HX - HEAT INDEX
  VSB - VISIBILITY
$$




USA.gov is the U.S. government's official web portal to all federal, state and local government web resources and services.